International Skating Union - Official Site

ISU World Cup Final Heerenveen
March 11-13, 2016

Draw | Lap Times | Index | World Cup

Referee: Jan  BOLT  (NED)
Starter: Stefan  HERRMANN  (GER)
StartTime: EndTime: Air Temp: Ice Temp: Humidity:
15:50 16:35 16.8℃ -13.5℃ 40%
Result 5000m Men Division A
Rankings as of Mar 12 2016 4:50PM
Rank: No.: Name: Nation: Time: Behind: Points:
1 30 Sven  Kramer NED NED 6:11.44200m - 18.21 - (18.2)
600m - 47.16 - (28.9)
1000m - 1:17.02 - (29.8)
1400m - 1:46.72 - (29.6)
1800m - 2:16.34 - (29.6)
2200m - 2:45.94 - (29.6)
2600m - 3:15.78 - (29.8)
3000m - 3:45.46 - (29.6)
3400m - 4:15.56 - (30.1)
3800m - 4:44.78 - (29.2)
4200m - 5:14.08 - (29.3)
4600m - 5:42.40 - (28.3)
5000m - 6:11.44 - (29.0)
150
2 23 Jorrit  Bergsma NED NED 6:12.74200m - 18.76 - (18.7)
600m - 47.74 - (28.9)
1000m - 1:17.21 - (29.4)
1400m - 1:46.93 - (29.7)
1800m - 2:16.42 - (29.4)
2200m - 2:46.17 - (29.7)
2600m - 3:15.76 - (29.5)
3000m - 3:45.59 - (29.8)
3400m - 4:15.45 - (29.8)
3800m - 4:45.17 - (29.7)
4200m - 5:14.12 - (28.9)
4600m - 5:43.23 - (29.1)
5000m - 6:12.74 - (29.5)
1.30 120
3 40 Sverre Lunde  Pedersen NOR NOR 6:16.36200m - 18.76 - (18.7)
600m - 48.28 - (29.5)
1000m - 1:18.32 - (30.0)
1400m - 1:48.39 - (30.0)
1800m - 2:18.23 - (29.8)
2200m - 2:48.27 - (30.0)
2600m - 3:18.06 - (29.7)
3000m - 3:47.70 - (29.6)
3400m - 4:17.41 - (29.7)
3800m - 4:47.08 - (29.6)
4200m - 5:16.69 - (29.6)
4600m - 5:46.41 - (29.7)
5000m - 6:16.36 - (29.9)
4.92 104
4 5 Ted-Jan  Bloemen CAN CAN 6:16.70200m - 18.72 - (18.7)
600m - 48.17 - (29.4)
1000m - 1:17.76 - (29.5)
1400m - 1:47.64 - (29.8)
1800m - 2:17.38 - (29.7)
2200m - 2:47.31 - (29.9)
2600m - 3:17.29 - (29.9)
3000m - 3:47.25 - (29.9)
3400m - 4:17.21 - (29.9)
3800m - 4:47.08 - (29.8)
4200m - 5:17.06 - (29.9)
4600m - 5:46.74 - (29.6)
5000m - 6:16.70 - (29.9)
5.26 90
5 35 Arjan  Stroetinga NED NED 6:19.18200m - 18.61 - (18.6)
600m - 48.08 - (29.4)
1000m - 1:18.18 - (30.1)
1400m - 1:48.37 - (30.1)
1800m - 2:18.64 - (30.2)
2200m - 2:48.80 - (30.1)
2600m - 3:19.06 - (30.2)
3000m - 3:49.20 - (30.1)
3400m - 4:19.22 - (30.0)
3800m - 4:49.31 - (30.0)
4200m - 5:19.22 - (29.9)
4600m - 5:49.09 - (29.8)
5000m - 6:19.18 - (30.0)
7.74 76
6 2 Bart  Swings BEL BEL 6:19.32200m - 18.66 - (18.6)
600m - 47.90 - (29.2)
1000m - 1:17.66 - (29.7)
1400m - 1:47.57 - (29.9)
1800m - 2:17.52 - (29.9)
2200m - 2:47.51 - (29.9)
2600m - 3:17.59 - (30.0)
3000m - 3:47.50 - (29.9)
3400m - 4:17.61 - (30.1)
3800m - 4:47.81 - (30.2)
4200m - 5:18.15 - (30.3)
4600m - 5:48.67 - (30.5)
5000m - 6:19.32 - (30.6)
7.88 45
7 29 Erik Jan  Kooiman NED NED 6:20.03200m - 19.91 - (19.9)
600m - 49.42 - (29.5)
1000m - 1:19.08 - (29.6)
1400m - 1:48.88 - (29.7)
1800m - 2:18.70 - (29.8)
2200m - 2:48.58 - (29.8)
2600m - 3:18.56 - (29.9)
3000m - 3:48.64 - (30.0)
3400m - 4:18.74 - (30.0)
3800m - 4:48.94 - (30.2)
4200m - 5:19.26 - (30.3)
4600m - 5:49.71 - (30.4)
5000m - 6:20.03 - (30.3)
8.59 40
8 25 Douwe  de Vries NED NED 6:23.23200m - 18.98 - (18.9)
600m - 48.12 - (29.1)
1000m - 1:17.93 - (29.8)
1400m - 1:48.27 - (30.3)
1800m - 2:18.36 - (30.0)
2200m - 2:48.47 - (30.1)
2600m - 3:18.56 - (30.0)
3000m - 3:48.99 - (30.4)
3400m - 4:19.53 - (30.5)
3800m - 4:50.09 - (30.5)
4200m - 5:21.05 - (30.9)
4600m - 5:52.10 - (31.0)
5000m - 6:23.23 - (31.1)
11.79 36
9 4 Jordan  Belchos CAN CAN 6:26.99200m - 19.17 - (19.1)
600m - 49.31 - (30.1)
1000m - 1:19.62 - (30.3)
1400m - 1:49.70 - (30.0)
1800m - 2:19.93 - (30.2)
2200m - 2:50.23 - (30.2)
2600m - 3:20.52 - (30.2)
3000m - 3:51.28 - (30.7)
3400m - 4:22.10 - (30.8)
3800m - 4:53.12 - (31.0)
4200m - 5:24.37 - (31.2)
4600m - 5:55.50 - (31.1)
5000m - 6:26.99 - (31.4)
15.55 32
10 15 Patrick  Beckert GER GER 6:27.94200m - 19.83 - (19.8)
600m - 50.09 - (30.2)
1000m - 1:20.52 - (30.4)
1400m - 1:51.23 - (30.7)
1800m - 2:21.90 - (30.6)
2200m - 2:52.51 - (30.6)
2600m - 3:23.16 - (30.6)
3000m - 3:53.87 - (30.7)
3400m - 4:24.61 - (30.7)
3800m - 4:55.32 - (30.7)
4200m - 5:26.11 - (30.7)
4600m - 5:56.95 - (30.8)
5000m - 6:27.94 - (30.9)
16.50 28
11 19 Andrea  Giovannini ITA ITA 6:28.90200m - 19.02 - (19.0)
600m - 48.41 - (29.3)
1000m - 1:18.74 - (30.3)
1400m - 1:49.35 - (30.6)
1800m - 2:19.96 - (30.6)
2200m - 2:50.83 - (30.8)
2600m - 3:21.58 - (30.7)
3000m - 3:52.52 - (30.9)
3400m - 4:23.64 - (31.1)
3800m - 4:54.57 - (30.9)
4200m - 5:25.54 - (30.9)
4600m - 5:56.90 - (31.3)
5000m - 6:28.90 - (31.9)
17.46 24
12 16 Moritz  Geisreiter GER GER 6:33.64200m - 19.37 - (19.3)
600m - 49.50 - (30.1)
1000m - 1:20.21 - (30.7)
1400m - 1:50.89 - (30.6)
1800m - 2:21.43 - (30.5)
2200m - 2:52.17 - (30.7)
2600m - 3:23.28 - (31.1)
3000m - 3:54.56 - (31.2)
3400m - 4:26.20 - (31.6)
3800m - 4:57.80 - (31.5)
4200m - 5:29.44 - (31.6)
4600m - 6:01.54 - (32.0)
5000m - 6:33.64 - (32.0)
22.20 21